Вернуться в каталог

CZ-6A DEB

АктивенPO
NORAD 60844·DEBRIS·🇨🇳 China

Запущен Aug 6, 2024 с Taiyuan Satellite Launch Center

Loading…

Ближайшие Пролёты (ближайшие 24 часа)

TLE

СвежийSource: Space-Track

Эпоха: Sep 14, 2026, 04:19 UTC

1 60844U 24140HX  26257.18010575  .00000319  00000-0  99169-4 0  9993
2 60844  88.6132 226.2873 0092141 303.3668  55.8737 14.36186754109424

Отслеживайте CZ-6A DEB в реальном времени с AllMySat

Download on the App Store